STPSAT-6

Last updated on Wed Sep 09 2026 00:03:03 GMT+0000 (Coordinated Universal Time)

1 49817U 21118A 26251.49422883 -.00000065 00000+0 00000+0 0 9998 2 49817 0.5300 84.3415 0001154 206.1567 123.0712 1.00271253 17401
UTC large
Height (km)
Speed (km/s)
/
Latitude / Longitude
Inclination (degrees)
Orbital Period (minutes)
Azimuth
Elevation
Range (km)
Doppler Factor

Next 0 passes for location: London (51.5072 / 0.1276)

No passes found over London.
STPSAT-6